Weather History for Szolnok, Hungary

Change the Weather History Date:

Thursday, February 28, 2013

  Actual Average (LHBP) Record (LHBP)
Temperature  
Mean Temperature 39 °F -  
Max Temperature 48 °F 42 °F 62 °F (1998)
Min Temperature 30 °F 27 °F 12 °F (2006)
Degree Days  
Heating Degree Days 26    
Moisture  
Dew Point 34 °F    
Average Humidity 77    
Maximum Humidity 93    
Minimum Humidity 62    
Precipitation  
Precipitation 0.00 in - - ()
Sea Level Pressure  
Sea Level Pressure 30.26 in    
Wind  
Wind Speed 4 mph ()    
Max Wind Speed 9 mph    
Max Gust Speed -    
Visibility 5.7 miles    
Events Fog    
Averages and records for this station are not official NWS values.
T = Trace of Precipitation, MM = Missing Value Source: Averaged Metar Reports

Daily Weather History Graph

Daily Weather History Graph

Search for Another Location

Airport:

Trip Planner

Search our weather history database for the weather conditions in past years. The results will help you decide how hot, cold, wet, or windy it might be!

Date:

Astronomy

Feb. 28, 2013 Rise Set
Actual Time 6:20 AM CET 5:22 PM CET
Civil Twilight 5:50 AM CET 5:53 PM CET
Nautical Twilight 5:15 AM CET 6:28 PM CET
Astronomical Twilight 4:39 AM CET 7:04 PM CET
Moon 8:46 PM CET (2/28) 7:05 AM CET (2/28)
Length of Visible Light 12h 03m
Length of Day
11h 01m
Waning Gibbous, 92% of the Moon is Illuminated
Feb 28
Waning Gibbous
Mar 4
Last Quarter
Mar 11
New
Mar 19
First Quarter
Mar 27
Full

Hourly Weather History & Observations

Time (CET) Temp. Windchill Dew Point Humidity Pressure Visibility Wind Dir Wind Speed Gust Speed Precip Events Conditions
6:15 AM 30.2 °F - 26.6 °F 86% 30.30 in - NE 2.2 mph - N/A   Clear
7:45 AM 33.8 °F - 28.4 °F 81% 30.33 in 6.2 mi NE 2.2 mph - N/A   Partly Cloudy
8:15 AM 35.6 °F 31.8 °F 28.4 °F 75% 30.33 in 6.2 mi East 4.5 mph - N/A   Scattered Clouds
8:45 AM - - - N/A% - 3.1 mi Variable 4.5 mph - N/A   Clear
9:15 AM 39.2 °F - 33.8 °F 81% 30.33 in 6.2 mi Calm Calm - N/A   Partly Cloudy
9:45 AM 41.0 °F - 33.8 °F 76% 30.33 in - SSE 2.2 mph - N/A   Clear
10:15 AM 42.8 °F 40.2 °F 35.6 °F 76% 30.33 in 6.2 mi SSW 4.5 mph - N/A   Partly Cloudy
10:45 AM 44.6 °F 42.3 °F 35.6 °F 71% 30.33 in 6.2 mi South 4.5 mph - N/A   Scattered Clouds
11:15 AM 44.6 °F 42.3 °F 35.6 °F 71% 30.33 in 6.2 mi SSW 4.5 mph - N/A   Scattered Clouds
11:45 AM - - - N/A% - 6.2 mi SSW 6.7 mph - N/A   Clear
12:15 PM 46.4 °F 44.4 °F 35.6 °F 66% 30.30 in 6.2 mi SSW 4.5 mph - N/A   Partly Cloudy
12:45 PM 46.4 °F 44.4 °F 35.6 °F 66% 30.30 in 6.2 mi SSW 4.5 mph - N/A   Partly Cloudy
1:15 PM 48.2 °F - 35.6 °F 62% 30.27 in 6.2 mi SSW 2.2 mph - N/A   Scattered Clouds
1:45 PM 48.2 °F - 35.6 °F 62% 30.27 in 6.2 mi SSW 4.5 mph - N/A   Scattered Clouds
2:15 PM 48.2 °F - 35.6 °F 62% 30.27 in 6.2 mi SSW 4.5 mph - N/A   Partly Cloudy
2:45 PM - - - N/A% - 6.2 mi SSW 6.7 mph - N/A   Clear
3:15 PM 48.2 °F - 35.6 °F 62% 30.24 in 6.2 mi South 4.5 mph - N/A   Partly Cloudy
4:15 PM 48.2 °F - 35.6 °F 62% 30.24 in 6.2 mi SW 6.7 mph - N/A   Partly Cloudy
4:45 PM 46.4 °F 43.0 °F 37.4 °F 71% 30.24 in 6.2 mi SSW 6.7 mph - N/A   Partly Cloudy
5:15 PM 44.6 °F 40.8 °F 35.6 °F 71% 30.24 in - South 6.7 mph - N/A   Clear
5:45 PM - - - N/A% - - North - - N/A   Unknown
6:15 PM 41.0 °F 35.4 °F 37.4 °F 87% 30.24 in - SSW 8.9 mph - N/A   Clear
6:45 PM 41.0 °F 35.4 °F 35.6 °F 81% 30.24 in - SSW 8.9 mph - N/A   Clear
7:00 PM - - - N/A% - - North - - N/A   Unknown
7:15 PM 39.2 °F 33.1 °F 35.6 °F 87% 30.21 in - SSW 8.9 mph - N/A   Clear
7:45 PM 39.2 °F 33.1 °F 35.6 °F 87% 30.21 in - SSW 8.9 mph - N/A   Clear
8:15 PM 39.2 °F 33.1 °F 35.6 °F 87% 30.21 in - SW 8.9 mph - N/A   Clear
8:45 PM - - - N/A% - - North - - N/A   Unknown
9:15 PM 37.4 °F 30.9 °F 35.6 °F 93% 30.21 in - SW 8.9 mph - N/A   Clear
9:45 PM 37.4 °F 30.9 °F 33.8 °F 87% 30.21 in - SW 8.9 mph - N/A   Clear
10:15 PM 37.4 °F 32.2 °F 33.8 °F 87% 30.21 in 5.0 mi SW 6.7 mph - N/A   Unknown
10:45 PM 35.6 °F 30.0 °F 33.8 °F 93% 30.18 in 5.0 mi SW 6.7 mph - N/A   Clear
11:15 PM 35.6 °F 28.7 °F 33.8 °F 93% 30.18 in 3.7 mi SW 8.9 mph - N/A   Clear
11:45 PM - - - N/A% - 3.1 mi North - - N/A Fog Mostly Cloudy